sat.trackr.live / text

‹ back to catalog

STARLINK-32230

NORAD 60366 · 2024-138M

PAYLOAD ACTIVE UNKNOWN

§ Identity

Operator
Country
US
Launch date
2024-08-04
Launch site
AFWTR
Launch vehicle
Mass (kg)
RCS (m²)

Purposes: comms

External: N2YO · Heavens-Above · Gunter

§ Orbital elements

Epoch: 2026-05-25T03:56:11.982048Z

Period
94.11 min
Inclination
53.1613°
Eccentricity
0.0001029
Mean motion
15.30197062 rev/d
Perigee alt
474.5 km
Apogee alt
475.9 km
Semi-major
6,853.4 km
B*
3.9186e-5
RAAN
314.5691°
Arg perigee
86.5598°
Mean anomaly
273.5520°
Rev number
10,233

§ Raw data

STARLINK-322301 60366U 24138M   26145.16402757  .00000802  00000+0  39186-4 0  99992 60366  53.1613 314.5691 0001029  86.5598 273.5520 15.30197062102331

JSON: /api/v1/satellites/60366 · /tle

For live sub-satellite position, see the globe view (requires WebGL).

§ Visibility from observer

Set your observer location to see the next 7 days of passes ≥ 10°. The values pass through the URL so the page stays shareable.

No JS? Fill the form by hand. The geolocation button needs JavaScript.